sat.trackr.live / text

‹ back to catalog

STARLINK-2322

NORAD 47791 · 2021-018E

PAYLOAD ACTIVE UNKNOWN

§ Identity

Operator
Country
US
Launch date
2021-03-11
Launch site
AFETR
Launch vehicle
Mass (kg)
RCS (m²)

Purposes: comms

External: N2YO · Heavens-Above · Gunter

§ Orbital elements

Epoch: 2026-05-24T23:31:02.470944Z

Period
94.01 min
Inclination
53.1582°
Eccentricity
0.0002213
Mean motion
15.31698236 rev/d
Perigee alt
469.2 km
Apogee alt
472.3 km
Semi-major
6,848.9 km
B*
-3.0078e-5
RAAN
248.0930°
Arg perigee
81.3091°
Mean anomaly
278.8161°
Rev number
28,842

§ Raw data

STARLINK-23221 47791U 21018E   26144.97988971 -.00001299  00000+0 -30078-4 0  99992 47791  53.1582 248.0930 0002213  81.3091 278.8161 15.31698236288421

JSON: /api/v1/satellites/47791 · /tle

For live sub-satellite position, see the globe view (requires WebGL).

§ Visibility from observer

Set your observer location to see the next 7 days of passes ≥ 10°. The values pass through the URL so the page stays shareable.

No JS? Fill the form by hand. The geolocation button needs JavaScript.